Home > Weather > Pully > Past weeks

Flag for Switzerland Weather for the Past 2 Weeks in Pully, Vaud, Switzerland

Now
43 °F

Quite cool.


Feels Like: 43 °F
Forecast: 46 / 60 °F
Wind: 2 mph from Northeast

Location: Payerne

Current Time: May 2, 2016 at 8:51:57 AM

Latest Report: May 2, 2016 at 7:00 AM


Visibility: N/A

Pressure: 30.22 "Hg

Humidity: 95%

Dew Point: 41 °F

Location of PullyLocation

Historic Weather in Pully — Graph

°F

Pully Temperature Yesterday

Maximum temperature yesterday: 44 °F (at 3:00 PM)
Minimum temperature yesterday: 42 °F (at 9:00 AM)
Average temperature yesterday: 43 °F

High & Low Weather Summary for the Past Weeks

 TemperatureHumidityPressure
High65 °F (Apr 21, 4:00 PM)96% (Apr 23, 12:00 AM)30.33 "Hg (Apr 23, 12:00 AM)
Low30 °F (Apr 28, 2:00 AM)35% (Apr 29, 6:00 PM)29.71 "Hg (Apr 26, 8:00 PM)
Average47 °F73%30.03 "Hg
* Reported Apr 17 1:00 PM — May 2 6:00 AM, Pully, Weather by CustomWeather, © 2016

Note: Actual official high and low records may vary slightly from our data, if they occured in-between our weather recording intervals... More about our weather records

Advertising

Pully Weather History for the Previous 24 Hours

Scroll right to see more
 ConditionsComfort  
Time TempWeatherWind HumidityBarometerVisibility
6:00 AM
Mon, May 2
42 °FQuite cool.2 mph96%30.21 "HgN/A
5:00 AM42 °FQuite cool.2 mph96%30.21 "HgN/A
4:00 AM42 °FQuite cool.2 mph96%30.22 "HgN/A
3:00 AM42 °FQuite cool.1 mph94%30.22 "HgN/A
2:00 AM42 °FLight rain. Overcast.No wind93%30.22 "Hg5 mi
1:00 AM42 °FQuite cool.3 mph94%30.23 "HgN/A
12:00 AM43 °FQuite cool.1 mph95%30.24 "HgN/A
11:00 PM
Sun, May 1
43 °FRain. Overcast.2 mph96%30.24 "Hg3 mi
10:00 PM43 °FQuite cool.2 mph94%30.24 "HgN/A
9:00 PM43 °FQuite cool.1 mph93%30.22 "HgN/A
8:00 PM44 °FOvercast.3 mph90%30.20 "Hg12 mi
7:00 PM44 °FQuite cool.2 mph85%30.19 "HgN/A
6:00 PM44 °FQuite cool.1 mph84%30.19 "HgN/A
5:00 PM44 °FQuite cool.1 mph83%30.19 "HgN/A
4:00 PM44 °FQuite cool.3 mph81%30.16 "HgN/A
3:00 PM44 °FQuite cool.3 mph82%30.15 "HgN/A
2:00 PM43 °FRain. Overcast.5 mph84%30.14 "Hg11 mi
1:00 PM44 °FQuite cool.7 mph80%30.11 "HgN/A
12:00 PM44 °FQuite cool.2 mph71%30.10 "HgN/A
11:00 AM44 °FOvercast.3 mph75%30.09 "Hg15 mi
10:00 AM42 °FQuite cool.No wind81%30.09 "HgN/A
9:00 AM42 °FQuite cool.No wind85%30.08 "HgN/A
Weather by CustomWeather, © 2016

See weather overviewHow to use our weather pages